Flag for U.S.A. Weather past 2 weeks in Moreno Valley, California, U.S.A.

Now
65 °F

Partly sunny.


Feels Like: 65 °F
Forecast: 45 / 65 °F
Wind: 8 mph from North

Location: Riverside / March Air Force Base

Current Time: Jan 31, 2015 at 3:00:28 PM

Latest Report: Jan 31, 2015 at 1:58 PM


Visibility: 10 mi

Pressure: 29.87 "Hg

Humidity: 53%

Dew point: 47 °F

Location of Moreno ValleyLocation

Historic Weather in Moreno Valley — Graph

°F

Moreno Valley temperature yesterday

Maximum temperature yesterday: 63 °F (at 11:58 AM)
Minimum temperature yesterday: 50 °F (at 11:58 PM)
Average temperature yesterday: 56 °F

Past Weeks' High & Low Weather Summary

 TemperatureHumidityPressure
High75 °F (Jan 25, 10:58 AM)100% (Jan 19, 3:58 AM)30.27 "Hg (Jan 19, 3:58 AM)
Low34 °F (Jan 22, 2:58 AM)10% (Jan 23, 11:58 AM)29.83 "Hg (Jan 31, 3:58 AM)
Average55 °F60%30.08 "Hg
* Reported Jan 16 1:58 PM — Jan 31 1:58 PM, Moreno Valley, Weather by CustomWeather, © 2014

Note: Actual official high and low records may vary slightly from our data, if they occured in-between our weather recording intervals... More about our weather records

Advertising

Moreno Valley weather history for previous 24 hours

 ConditionsComfort  
Time TempWeatherWind HumidityBarometerVisibility
1:58 PM
Jan 31
65 °FPartly sunny.8 mph53%29.87 "Hg10 mi
12:58 PM63 °FPassing clouds.8 mph65%29.87 "Hg10 mi
11:58 AM61 °FSunny.5 mph82%29.89 "Hg10 mi
10:58 AM56 °FSunny.3 mph100%29.91 "Hg10 mi
9:58 AM52 °FFog.2 mph100%29.93 "Hg5 mi
8:58 AM51 °FFog.3 mph100%29.91 "Hg3 mi
7:58 AM50 °FFog.No wind100%29.88 "Hg3 mi
6:58 AM47 °FFog.No wind100%29.87 "Hg4 mi
5:58 AM47 °FFog.No wind100%29.85 "Hg6 mi
4:58 AM47 °FFog.No wind100%29.84 "Hg5 mi
3:58 AM46 °FFog.1 mph100%29.83 "Hg5 mi
2:58 AM45 °FPassing clouds.No wind100%29.84 "Hg7 mi
1:58 AM46 °FFog.No wind100%29.85 "Hg5 mi
12:58 AM52 °FOvercast.2 mph100%29.85 "Hg10 mi
11:58 PM
Jan 30
50 °FMostly cloudy.No wind100%29.87 "Hg10 mi
10:58 PM51 °FOvercast.5 mph100%29.87 "Hg10 mi
9:58 PM52 °FPassing clouds.5 mph100%29.88 "Hg10 mi
8:58 PM52 °FOvercast.6 mph100%29.87 "Hg10 mi
7:58 PM52 °FOvercast.2 mph100%29.86 "Hg10 mi
6:58 PM53 °FPassing clouds.2 mph98%29.85 "Hg10 mi
6:03 PM54 °FLight rain. Passing clouds.7 mph94%29.86 "Hg10 mi
5:58 PM54 °FMostly cloudy.8 mph93%29.85 "Hg10 mi
4:58 PM60 °FOvercast.6 mph65%29.84 "Hg10 mi
3:58 PM61 °FPartly sunny.7 mph62%29.83 "Hg10 mi
Weather by CustomWeather, © 2014

See weather overviewHow to use our weather pages